[keps] orb12088.amsat

Ray Hoad ray.hoad at mypbmail.com
Wed Mar 28 09:57:49 PDT 2012


SB KEPS @ AMSAT  $ORB12088.O
Orbital Elements  12088.OSCAR

HR AMSAT ORBITAL ELEMENTS FOR OSCAR SATELLITES
FROM WA5QGD FORT WORTH,TX March 28, 2012
Send SUBSCRIBE KEPS/UNSUBSCRIBE KEPS to majordomo at amsat.org only
BID: ORB12088.O
TO ALL RADIO AMATEURS BT

Satellite: AO-07
Catalog number: 07530
Epoch time:      12087.90330607
Element set:     341
Inclination:      101.4017 deg
RA of node:       088.2586 deg
Eccentricity:    0.0012110
Arg of perigee:   081.5166 deg
Mean anomaly:     278.7279 deg
Mean motion:   12.53588455 rev/day
Decay rate:       -2.7e-07 rev/day^2
Epoch rev:           70986
Checksum:              298

Satellite: FO-29
Catalog number: 24278
Epoch time:      12087.83945049
Element set:     806
Inclination:      098.5776 deg
RA of node:       199.1588 deg
Eccentricity:    0.0349759
Arg of perigee:   239.8475 deg
Mean anomaly:     116.7579 deg
Mean motion:   13.52979003 rev/day
Decay rate:        1.5e-07 rev/day^2
Epoch rev:           77095
Checksum:              386

Satellite: SO-33
Catalog number: 25509
Epoch time:      12087.37721390
Element set:    0195
Inclination:      031.4327 deg
RA of node:       076.6369 deg
Eccentricity:    0.0353023
Arg of perigee:   207.4980 deg
Mean anomaly:     150.6553 deg
Mean motion:   14.28685640 rev/day
Decay rate:        1.0e-07 rev/day^2
Epoch rev:           70094
Checksum:              296

Satellite: RS-22
Catalog number: 27939
Epoch time:      12087.73226885
Element set:    0211
Inclination:      097.8187 deg
RA of node:       292.6999 deg
Eccentricity:    0.0013721
Arg of perigee:   159.3038 deg
Mean anomaly:     200.8729 deg
Mean motion:   14.63945717 rev/day
Decay rate:       4.90e-06 rev/day^2
Epoch rev:           45396
Checksum:              351

Satellite: VO-52
Catalog number: 28650
Epoch time:      12087.60898753
Element set:    0061
Inclination:      097.6056 deg
RA of node:       122.5311 deg
Eccentricity:    0.0025651
Arg of perigee:   310.8334 deg
Mean anomaly:     049.0643 deg
Mean motion:   14.82773600 rev/day
Decay rate:      1.279e-05 rev/day^2
Epoch rev:           37288
Checksum:              308

Satellite: HO-68
Catalog number: 36122
Epoch time:      12088.34352941
Element set:     325
Inclination:      100.3701 deg
RA of node:       149.2927 deg
Eccentricity:    0.0007121
Arg of perigee:   295.3162 deg
Mean anomaly:     064.7213 deg
Mean motion:   13.16294185 rev/day
Decay rate:       -4.4e-07 rev/day^2
Epoch rev:           10975
Checksum:              278

/EX
SB KEPS @ AMSAT  $ORB12088.D
Orbital Elements  12088.MICROS

HR AMSAT ORBITAL ELEMENTS FOR THE MICROSATS
FROM WA5QGD FORT WORTH,TX March 28, 2012
Send SUBSCRIBE KEPS/UNSUBSCRIBE KEPS to majordomo at amsat.org only
BID: ORB12088.D
TO ALL RADIO AMATEURS BT

Satellite: UO-11
Catalog number: 14781
Epoch time:      12087.94539045
Element set:    0831
Inclination:      097.9644 deg
RA of node:       148.1477 deg
Eccentricity:    0.0008038
Arg of perigee:   301.6159 deg
Mean anomaly:     058.4271 deg
Mean motion:   14.80359602 rev/day
Decay rate:       6.73e-06 rev/day^2
Epoch rev:           50791
Checksum:              320

Satellite: AO-16
Catalog number: 20439
Epoch time:      12087.96800585
Element set:    0433
Inclination:      098.4223 deg
RA of node:       033.6477 deg
Eccentricity:    0.0011788
Arg of perigee:   042.6977 deg
Mean anomaly:     317.5118 deg
Mean motion:   14.32030531 rev/day
Decay rate:        9.2e-07 rev/day^2
Epoch rev:           15837
Checksum:              306

Satellite: LO-19
Catalog number: 20442
Epoch time:      12087.86365131
Element set:    0360
Inclination:      098.3884 deg
RA of node:       036.8401 deg
Eccentricity:    0.0012593
Arg of perigee:   035.4164 deg
Mean anomaly:     324.7848 deg
Mean motion:   14.32250342 rev/day
Decay rate:        8.4e-07 rev/day^2
Epoch rev:           15854
Checksum:              295

Satellite: AO-27
Catalog number: 22825
Epoch time:      12087.90970390
Element set:    0071
Inclination:      098.5682 deg
RA of node:       032.0202 deg
Eccentricity:    0.0008738
Arg of perigee:   153.4308 deg
Mean anomaly:     206.7320 deg
Mean motion:   14.29440716 rev/day
Decay rate:        4.4e-07 rev/day^2
Epoch rev:           96486
Checksum:              298

Satellite: IO-26
Catalog number: 22826
Epoch time:      12087.92609698
Element set:    0821
Inclination:      098.5617 deg
RA of node:       032.4273 deg
Eccentricity:    0.0009143
Arg of perigee:   147.1648 deg
Mean anomaly:     213.0102 deg
Mean motion:   14.29712799 rev/day
Decay rate:        8.4e-07 rev/day^2
Epoch rev:           96499
Checksum:              331

Satellite: GO-32
Catalog number: 25397
Epoch time:      12088.48142228
Element set:     736
Inclination:      098.3563 deg
RA of node:       071.1931 deg
Eccentricity:    0.0001662
Arg of perigee:   126.6667 deg
Mean anomaly:     233.4673 deg
Mean motion:   14.23264511 rev/day
Decay rate:        6.4e-07 rev/day^2
Epoch rev:           71254
Checksum:              299

Satellite: NO-44
Catalog number: 26931
Epoch time:      12087.61789096
Element set:       2
Inclination:      067.0542 deg
RA of node:       330.5693 deg
Eccentricity:    0.0006851
Arg of perigee:   276.3924 deg
Mean anomaly:     083.6400 deg
Mean motion:   14.29774999 rev/day
Decay rate:       1.41e-06 rev/day^2
Epoch rev:           54758
Checksum:              328

Satellite: SO-50
Catalog number: 27607
Epoch time:      12086.71181244
Element set:    0723
Inclination:      064.5594 deg
RA of node:       185.7688 deg
Eccentricity:    0.0085039
Arg of perigee:   264.8589 deg
Mean anomaly:     094.2787 deg
Mean motion:   14.72276190 rev/day
Decay rate:       6.28e-06 rev/day^2
Epoch rev:           49782
Checksum:              359

Satellite: CO-55
Catalog number: 27844
Epoch time:      12088.01797328
Element set:     338
Inclination:      098.7056 deg
RA of node:       097.5753 deg
Eccentricity:    0.0010686
Arg of perigee:   096.3309 deg
Mean anomaly:     263.9081 deg
Mean motion:   14.20983239 rev/day
Decay rate:       1.93e-06 rev/day^2
Epoch rev:           45336
Checksum:              341

Satellite: CO-57
Catalog number: 27848
Epoch time:      12088.00756339
Element set:     289
Inclination:      098.7138 deg
RA of node:       096.8624 deg
Eccentricity:    0.0010675
Arg of perigee:   100.4267 deg
Mean anomaly:     259.8103 deg
Mean motion:   14.20739917 rev/day
Decay rate:       1.48e-06 rev/day^2
Epoch rev:           45330
Checksum:              331

Satellite: AO-51
Catalog number: 28375
Epoch time:      12087.41863509
Element set:    0228
Inclination:      098.1375 deg
RA of node:       056.5388 deg
Eccentricity:    0.0083216
Arg of perigee:   289.4003 deg
Mean anomaly:     069.8188 deg
Mean motion:   14.40918972 rev/day
Decay rate:       2.78e-06 rev/day^2
Epoch rev:           40699
Checksum:              351

Satellite: CP3
Catalog number: 31129
Epoch time:      12088.44410342
Element set:     126
Inclination:      097.8863 deg
RA of node:       100.9721 deg
Eccentricity:    0.0101863
Arg of perigee:   015.2272 deg
Mean anomaly:     345.1939 deg
Mean motion:   14.52956174 rev/day
Decay rate:       8.31e-06 rev/day^2
Epoch rev:           26225
Checksum:              284

Satellite: CO-65
Catalog number: 32785
Epoch time:      12088.33936049
Element set:     265
Inclination:      097.8080 deg
RA of node:       151.2818 deg
Eccentricity:    0.0014287
Arg of perigee:   329.9642 deg
Mean anomaly:     030.0836 deg
Mean motion:   14.82783996 rev/day
Decay rate:      1.241e-05 rev/day^2
Epoch rev:           21178
Checksum:              333

Satellite: PRISM
Catalog number: 33493
Epoch time:      12088.46652852
Element set:     554
Inclination:      098.1584 deg
RA of node:       227.1891 deg
Eccentricity:    0.0018824
Arg of perigee:   195.2959 deg
Mean anomaly:     164.7699 deg
Mean motion:   14.83430873 rev/day
Decay rate:      2.598e-05 rev/day^2
Epoch rev:           17178
Checksum:              360

Satellite: SOHLA-1
Catalog number: 33496
Epoch time:      12087.96420535
Element set:    0694
Inclination:      098.0958 deg
RA of node:       200.2805 deg
Eccentricity:    0.0005764
Arg of perigee:   304.6367 deg
Mean anomaly:     055.4290 deg
Mean motion:   14.69902109 rev/day
Decay rate:       3.25e-06 rev/day^2
Epoch rev:           17031
Checksum:              302

Satellite: SO-67
Catalog number: 35870
Epoch time:      12088.40925926
Element set:     812
Inclination:      097.2419 deg
RA of node:       126.9975 deg
Eccentricity:    0.0003841
Arg of perigee:   091.2833 deg
Mean anomaly:     091.7329 deg
Mean motion:   15.23118456 rev/day
Decay rate:      3.608e-05 rev/day^2
Epoch rev:           14031
Checksum:              318

Satellite: TISAT-1
Catalog number: 36799
Epoch time:      12087.90474377
Element set:    0830
Inclination:      098.0675 deg
RA of node:       163.6467 deg
Eccentricity:    0.0016378
Arg of perigee:   077.8524 deg
Mean anomaly:     282.4518 deg
Mean motion:   14.81661093 rev/day
Decay rate:      1.416e-05 rev/day^2
Epoch rev:           09245
Checksum:              341

Satellite: STUDSAT
Catalog number: 36801
Epoch time:      12088.49277774
Element set:     366
Inclination:      098.0738 deg
RA of node:       164.6267 deg
Eccentricity:    0.0013801
Arg of perigee:   062.9603 deg
Mean anomaly:     297.3017 deg
Mean motion:   14.83502816 rev/day
Decay rate:      3.509e-05 rev/day^2
Epoch rev:            9255
Checksum:              318

Satellite: FO-69
Catalog number: 37227
Epoch time:      12087.42771165
Element set:    0139
Inclination:      071.9690 deg
RA of node:       132.3630 deg
Eccentricity:    0.0015508
Arg of perigee:   115.9976 deg
Mean anomaly:     244.2768 deg
Mean motion:   14.76978618 rev/day
Decay rate:       3.70e-06 rev/day^2
Epoch rev:           02402
Checksum:              325

